Temp
-1 -0 0 0 1 1 1 0 0 1 1 2 2 3 3 3 3 4 4 4 4 4 4 4 4 3 3 3 2 2 3 1 1 4 4 2 3 2 2 1 1 1 0 0
-2 -1 -1 -1 -0 -0 -0 -0 -0 1 1 1 2 2 2 2 2 3 3 3 3 4 4 3 2 2 3 2 3 2 2 0 0 3 3 2 1 1 1 0 -0 -0 -2 -1
-2 -2 -1 -1 -1 -1 -1 -1 -1 -0 -0 0 1 1 1 2 2 2 2 1 3 3 2 2 1 1 2 1 2 2 1 1 -0 -1 0 -1 -1 -1 -1 -1 -1 -1 -1 -1
-3 -2 -2 -1 -1 -1 -1 -1 -1 -1 0 1 0 1 1 1 2 1 1 1 2 2 1 1 1 0 -0 -0 0 1 0 0 -1 -2 -0 -1 -2 -2 -1 -1 -1 -2 -1 -2
-4 -3 -3 -2 -2 -1 -2 -2 -2 -2 -0 0 -0 0 0 1 1 1 1 1 1 0 0 0 0 0 -0 -1 -1 -1 -1 -2 -3 -2 -2 -3 -2 -1 -2 -2 -2 -2 -2 -3
-4 -3 -3 -2 -3 -2 -1 -3 -3 -2 -2 -0 0 -0 0 0 -0 0 1 0 -1 -0 0 0 -0 -0 -0 -1 -1 -2 -1 -2 -3 -3 -3 -2 -2 -2 -2 -3 -3 -3 -4 -5
-3 -4 -4 -3 -3 -3 -2 -2 -3 -4 -3 -2 -0 -0 -0 -0 -0 0 -0 0 -1 0 -0 -0 -0 -0 -0 -1 -1 -1 -2 -3 -4 -5 -4 -8 -1 -3 -3 -3 -4 -4 -5 -5
-3 -3 -3 -3 -2 -2 -2 -3 -3 -2 -2 -1 -1 -1 -1 -1 -1 -1 -0 -0 0 0 -1 -1 -1 -1 -1 -0 -1 -1 -2 -4 -4 -4 -6 -4 -2 -3 -3 -4 -5 -5 -5 -5
-3 -3 -3 -3 -3 -3 -3 -3 -2 -2 -1 -2 -2 -1 -1 -1 -1 -0 -0 -0 -1 -1 -1 -1 -2 -1 -2 -2 -2 -3 -3 -4 -4 -5 -6 -7 -2 -3 -4 -4 -4 -5 -5 -6
-3 -3 -3 -2 -2 -2 -3 -3 -2 -2 -2 -2 -1 -1 -1 -1 -2 -2 -1 -1 -1 -2 -1 -2 -2 -2 -2 -2 -3 -3 -4 -4 -4 -4 -6 -5 -5 -5 -4 -4 -4 -5 -7 -7
-3 -3 -3 -3 -3 -2 -2 -2 -2 -2 -2 -2 -1 -1 -2 -1 -1 -1 -1 -1 -1 -1 -2 -3 -3 -3 -3 -3 -2 -3 -3 -3 -4 -5 -5 -4 -4 -4 -4 -5 -6 -6 -6 -6
-4 -3 -3 -3 -3 -3 -2 -2 -2 -2 -3 -3 -2 -2 -2 -2 -2 -2 -1 -1 -1 -2 -3 -4 -3 -3 -4 -4 -3 -3 -4 -4 -4 -4 -4 -5 -5 -5 -6 -6 -6 -6 -5 -6
-5 -4 -4 -4 -3 -3 -4 -4 -3 -3 -3 -3 -3 -3 -2 -3 -3 -4 -3 -2 -2 -2 -2 -2 -3 -4 -3 -4 -4 -4 -4 -4 -4 -4 -4 -5 -5 -5 -6 -6 -6 -6 -6 -6
-5 -5 -5 -5 -4 -4 -4 -4 -4 -3 -3 -3 -3 -4 -4 -4 -4 -4 -4 -4 -3 -3 -4 -4 -4 -4 -4 -4 -4 -3 -3 -3 -3 -4 -5 -5 -6 -6 -6 -6 -6 -6 -7 -7
-6 -6 -6 -6 -5 -5 -5 -4 -4 -4 -4 -4 -3 -4 -4 -4 -4 -4 -5 -4 -4 -4 -4 -5 -5 -5 -5 -5 -5 -2 -3 -4 -4 -5 -5 -6 -6 -7 -6 -7 -7 -7 -7 -7
-7 -6 -6 -6 -6 -5 -5 -5 -5 -5 -4 -5 -4 -4 -4 -4 -4 -5 -5 -5 -5 -4 -5 -5 -5 -5 -5 -5 -4 -3 -4 -4 -5 -5 -6 -6 -7 -7 -6 -7 -7 -7 -7 -7
-7 -7 -7 -7 -6 -6 -6 -6 -5 -5 -5 -5 -5 -5 -4 -4 -5 -5 -5 -5 -5 -5 -6 -6 -6 -6 -7 -6 -3 -3 -4 -4 -4 -5 -6 -7 -7 -7 -7 -7 -7 -8 -8 -8
-8 -8 -8 -8 -7 -7 -7 -6 -6 -6 -6 -6 -6 -6 -6 -5 -5 -7 -6 -6 -7 -6 -7 -6 -6 -7 -7 -5 -3 -3 -4 -4 -5 -6 -6 -7 -6 -7 -7 -7 -8 -8 -8 -8
-8 -8 -8 -8 -8 -8 -8 -8 -7 -7 -7 -7 -6 -6 -6 -6 -6 -7 -7 -7 -7 -8 -7 -6 -7 -8 -6 -4 -4 -4 -5 -6 -6 -7 -7 -7 -7 -7 -7 -8 -8 -9 -9 -9
-9 -9 -8 -9 -9 -8 -8 -8 -8 -8 -7 -7 -7 -8 -8 -7 -8 -8 -8 -8 -7 -9 -8 -8 -8 -6 -4 -5 -5 -5 -6 -7 -7 -7 -7 -7 -7 -7 -7 -8 -9 -9 -9 -9
-9 -9 -9 -9 -9 -9 -9 -8 -8 -8 -9 -8 -8 -8 -9 -9 -9 -8 -8 -9 -9 -9 -8 -8 -9 -5 -4 -4 -5 -6 -7 -7 -7 -7 -7 -7 -7 -7 -7 -8 -9 -9 -10 -10
-9 -9 -9 -9 -9 -9 -9 -8 -8 -8 -8 -8 -8 -9 -9 -9 -9 -9 -9 -9 -9 -9 -9 -8 -8 -5 -5 -5 -6 -6 -7 -7 -7 -7 -7 -7 -7 -8 -8 -8 -9 -9 -10 -10
-10 -10 -10 -10 -9 -9 -9 -9 -9 -8 -8 -8 -8 -8 -9 -9 -9 -9 -9 -9 -9 -9 -9 -9 -7 -5 -6 -7 -7 -7 -7 -7 -8 -8 -7 -7 -8 -9 -9 -9 -9 -10 -10 -11
-11 -11 -11 -10 -9 -9 -8 -8 -9 -9 -8 -8 -8 -8 -9 -10 -9 -9 -9 -9 -9 -9 -9 -8 -6 -6 -7 -7 -7 -7 -7 -7 -8 -8 -8 -8 -8 -9 -9 -9 -10 -10 -11 -11
-12 -12 -11 -10 -9 -9 -9 -10 -9 -9 -9 -9 -8 -9 -9 -10 -10 -9 -9 -9 -8 -8 -7 -7 -7 -7 -7 -7 -7 -7 -7 -8 -8 -8 -8 -8 -9 -9 -9 -9 -10 -10 -11 -11
-13 -13 -12 -11 -10 -9 -9 -9 -9 -9 -9 -9 -10 -9 -10 -9 -9 -9 -9 -9 -8 -7 -7 -6 -7 -7 -7 -7 -7 -7 -7 -8 -8 -8 -8 -8 -9 -9 -9 -9 -10 -10 -10 -11
-14 -13 -12 -11 -11 -11 -10 -10 -10 -10 -10 -9 -9 -9 -8 -9 -9 -9 -9 -8 -7 -7 -7 -7 -7 -7 -7 -7 -7 -7 -8 -8 -8 -8 -8 -8 -8 -9 -9 -9 -9 -10 -10 -10
Height
3076 3082 3088 3095 3100 3104 3111 3115 3121 3126 3130 3135 3136 3138 3143 3145 3145 3148 3151 3152 3153 3153 3154 3155 3156 3154 3154 3154 3155 3154 3155 3155 3155 3154 3153 3154 3157 3157 3157 3156 3154 3153 3151 3128
3071 3078 3083 3089 3095 3100 3107 3113 3117 3121 3125 3128 3132 3135 3137 3141 3142 3144 3146 3148 3149 3149 3150 3153 3153 3151 3152 3152 3153 3152 3153 3153 3153 3154 3154 3153 3153 3154 3153 3152 3149 3141 3146 3130
3066 3071 3078 3084 3091 3096 3103 3109 3110 3113 3119 3123 3127 3130 3133 3137 3139 3141 3142 3145 3145 3146 3146 3147 3150 3149 3150 3148 3150 3150 3149 3150 3151 3153 3152 3151 3149 3149 3149 3149 3146 3140 3134 3129
3062 3066 3071 3079 3086 3092 3098 3102 3104 3107 3113 3118 3123 3127 3130 3132 3135 3136 3139 3140 3141 3143 3144 3144 3146 3147 3147 3146 3146 3146 3146 3146 3147 3148 3147 3146 3144 3141 3142 3142 3140 3138 3129 3127
3057 3060 3067 3074 3081 3087 3093 3096 3099 3102 3110 3113 3119 3121 3125 3127 3129 3132 3135 3136 3137 3141 3141 3141 3142 3144 3144 3145 3143 3141 3140 3141 3142 3141 3142 3141 3136 3138 3136 3136 3134 3129 3125 3121
3052 3056 3062 3069 3074 3080 3082 3089 3096 3101 3103 3109 3114 3118 3123 3124 3125 3128 3130 3132 3134 3136 3136 3136 3140 3141 3142 3142 3141 3139 3140 3139 3138 3137 3137 3136 3133 3132 3132 3130 3128 3125 3119 3111
3051 3055 3059 3066 3070 3074 3082 3088 3092 3095 3101 3107 3111 3116 3120 3121 3121 3125 3127 3128 3129 3133 3133 3135 3137 3138 3138 3138 3137 3136 3135 3135 3136 3134 3133 3135 3129 3128 3125 3124 3123 3118 3112 3107
3052 3056 3060 3064 3069 3073 3081 3087 3090 3094 3100 3105 3109 3112 3112 3115 3117 3121 3122 3125 3127 3129 3130 3132 3133 3133 3133 3132 3132 3131 3131 3133 3133 3131 3132 3130 3122 3122 3118 3115 3115 3108 3103 3101
3053 3057 3061 3064 3069 3074 3077 3082 3087 3092 3098 3099 3104 3107 3109 3112 3113 3115 3118 3123 3123 3124 3126 3129 3128 3129 3130 3131 3129 3129 3130 3131 3132 3130 3130 3127 3119 3115 3112 3110 3103 3101 3100 3091
3050 3055 3060 3063 3067 3073 3075 3079 3082 3088 3093 3096 3100 3103 3106 3108 3110 3111 3115 3118 3119 3120 3121 3123 3124 3125 3126 3127 3126 3126 3129 3127 3126 3126 3127 3121 3120 3110 3108 3107 3103 3093 3089 3084
3049 3052 3056 3059 3063 3069 3072 3076 3079 3084 3088 3091 3095 3099 3101 3103 3105 3106 3112 3113 3113 3115 3116 3119 3118 3118 3121 3122 3122 3124 3124 3123 3122 3123 3123 3120 3113 3107 3108 3105 3098 3094 3086 3080
3047 3049 3052 3057 3062 3065 3067 3072 3077 3081 3087 3089 3092 3094 3098 3102 3102 3103 3105 3107 3110 3110 3109 3111 3113 3114 3116 3117 3118 3118 3120 3118 3119 3121 3118 3114 3108 3104 3102 3100 3094 3089 3082 3075
3045 3048 3052 3055 3059 3061 3064 3069 3073 3077 3083 3084 3087 3090 3093 3096 3097 3098 3100 3101 3103 3103 3106 3106 3107 3111 3110 3112 3112 3111 3110 3111 3112 3113 3112 3110 3106 3102 3100 3096 3087 3084 3078 3072
3046 3049 3052 3055 3057 3059 3062 3066 3071 3074 3076 3078 3082 3087 3089 3091 3091 3093 3096 3097 3098 3101 3103 3104 3103 3105 3105 3106 3106 3104 3104 3105 3104 3103 3104 3103 3099 3095 3093 3090 3084 3080 3073 3068
3046 3048 3051 3054 3055 3058 3061 3064 3066 3069 3075 3074 3078 3082 3084 3085 3086 3088 3091 3092 3092 3095 3098 3098 3099 3099 3100 3098 3100 3097 3098 3096 3096 3093 3096 3096 3092 3087 3081 3082 3078 3073 3068 3064
3047 3049 3051 3052 3055 3057 3059 3062 3064 3065 3068 3072 3074 3077 3078 3080 3081 3083 3086 3085 3086 3091 3093 3094 3093 3093 3095 3093 3091 3094 3092 3088 3087 3090 3092 3089 3086 3081 3075 3075 3072 3068 3063 3060
3046 3049 3050 3052 3054 3055 3057 3060 3061 3063 3066 3068 3070 3071 3073 3075 3077 3078 3081 3080 3083 3086 3087 3087 3088 3088 3087 3084 3084 3089 3085 3081 3083 3086 3086 3084 3080 3075 3072 3069 3066 3063 3060 3058
3045 3047 3049 3051 3052 3054 3056 3058 3060 3062 3064 3066 3066 3066 3071 3071 3071 3075 3076 3077 3079 3079 3080 3082 3082 3081 3079 3077 3080 3080 3079 3078 3080 3080 3078 3077 3071 3069 3066 3064 3062 3059 3056 3054
3043 3046 3048 3050 3050 3052 3054 3055 3057 3059 3064 3061 3063 3065 3067 3068 3069 3070 3072 3073 3073 3076 3074 3077 3077 3072 3070 3075 3075 3074 3076 3076 3076 3074 3072 3068 3066 3063 3061 3058 3056 3054 3053 3051
3044 3046 3048 3049 3050 3050 3052 3053 3054 3055 3057 3059 3061 3062 3063 3066 3068 3067 3068 3068 3070 3070 3071 3070 3067 3061 3067 3067 3069 3070 3071 3072 3071 3069 3067 3063 3060 3058 3055 3052 3050 3049 3048 3046
3043 3045 3046 3047 3048 3049 3050 3050 3052 3053 3055 3055 3057 3059 3062 3063 3065 3064 3066 3067 3067 3066 3068 3068 3063 3058 3061 3061 3063 3065 3067 3068 3067 3065 3062 3059 3055 3053 3050 3048 3046 3045 3043 3042
3042 3044 3044 3046 3048 3048 3049 3048 3050 3050 3049 3050 3052 3054 3057 3059 3063 3065 3065 3065 3066 3066 3065 3062 3058 3058 3059 3059 3060 3063 3064 3063 3062 3060 3058 3055 3052 3049 3047 3045 3043 3042 3041 3040
3040 3042 3043 3044 3046 3045 3045 3044 3046 3047 3047 3049 3050 3052 3056 3059 3062 3063 3064 3064 3063 3061 3061 3056 3054 3055 3055 3057 3059 3060 3060 3059 3058 3057 3056 3053 3050 3048 3046 3045 3044 3043 3042 3042
3036 3038 3040 3042 3041 3040 3041 3045 3046 3048 3048 3049 3051 3053 3055 3056 3059 3062 3061 3058 3059 3057 3054 3049 3051 3052 3053 3055 3056 3056 3056 3055 3055 3055 3054 3051 3050 3048 3047 3046 3045 3045 3044 3044
3032 3033 3033 3034 3037 3040 3042 3044 3045 3046 3048 3050 3051 3052 3052 3054 3057 3056 3055 3054 3052 3049 3046 3047 3049 3050 3052 3053 3053 3053 3052 3052 3053 3052 3052 3051 3050 3049 3048 3048 3047 3047 3046 3046
3024 3024 3027 3030 3033 3037 3039 3042 3042 3043 3045 3045 3048 3049 3050 3051 3050 3049 3048 3048 3045 3045 3045 3047 3048 3049 3050 3050 3050 3050 3050 3050 3051 3051 3051 3051 3050 3050 3049 3049 3048 3047 3047 3047
3013 3014 3022 3025 3027 3030 3035 3038 3040 3040 3041 3041 3043 3044 3046 3046 3043 3042 3042 3040 3043 3043 3044 3046 3047 3047 3047 3047 3047 3047 3048 3049 3049 3050 3050 3050 3050 3050 3050 3049 3048 3048 3047 3047
Wind_Speed
36 35 35 33 32 30 29 27 25 24 23 19 20 19 18 15 20 20 14 16 14 13 11 9 10 7 14 4 9 6 9 5 8 12 1 4 6 5 5 8 11 20 22 47
36 36 34 32 32 30 28 27 27 26 26 24 23 19 20 19 21 20 14 16 19 18 15 10 13 12 17 15 11 5 8 3 5 1 7 5 2 11 18 21 20 34 10 22
32 36 34 32 32 30 27 25 24 29 30 26 23 19 20 23 23 16 15 15 15 14 14 14 8 13 11 9 8 11 11 7 7 6 11 18 24 24 19 17 24 29 32 36
24 32 40 36 34 32 30 27 26 28 18 29 28 24 17 23 23 23 20 18 13 10 10 7 11 12 9 15 10 10 8 7 8 11 14 18 16 20 20 21 21 22 31 32
20 21 29 30 30 33 28 28 30 28 24 25 26 25 20 14 14 16 19 16 10 11 11 13 10 12 13 14 12 13 12 6 10 17 4 8 15 16 7 7 14 22 24 30
17 21 24 25 25 35 32 33 35 30 25 16 29 23 20 16 18 16 16 16 11 17 21 21 19 17 15 16 14 15 13 13 10 4 10 16 3 4 9 8 12 22 28 33
9 12 16 17 20 25 24 20 27 21 17 20 27 29 19 16 20 22 18 17 19 20 17 17 18 18 19 19 19 19 19 12 6 7 10 1 6 2 10 18 21 24 33 35
10 12 16 18 20 20 20 22 21 22 22 22 20 17 23 24 21 28 25 20 21 16 16 16 13 12 13 10 10 11 13 12 6 4 7 13 5 6 20 27 23 24 32 35
15 16 17 18 19 20 24 25 25 26 22 23 22 24 26 26 28 26 21 14 15 14 15 13 7 4 3 2 2 5 5 6 8 4 3 4 4 21 25 27 32 18 44 56
17 18 18 18 18 20 21 23 24 24 23 22 23 24 24 23 22 23 19 15 16 15 15 14 10 9 9 6 8 11 13 13 17 13 10 10 11 23 23 14 32 48 53 53
16 17 17 18 17 18 18 18 19 20 22 17 24 21 22 22 22 22 14 14 15 16 16 12 10 9 10 10 14 9 11 10 11 13 11 12 15 26 27 34 39 47 43 45
15 16 16 17 17 18 17 19 19 19 20 16 20 19 21 18 20 21 17 18 11 14 14 13 8 12 12 15 8 13 12 17 8 9 6 14 26 31 28 34 40 37 37 39
13 13 13 14 16 14 15 17 18 19 20 19 18 21 23 21 22 23 21 19 18 18 18 16 14 12 12 14 18 16 19 18 20 19 19 27 28 30 29 34 30 28 31 29
13 13 14 14 15 15 14 15 16 17 17 20 17 20 21 20 23 23 21 21 20 15 14 18 19 17 15 20 19 18 18 19 23 26 26 26 24 27 30 29 24 23 24 20
11 11 11 11 12 13 14 14 14 16 19 9 20 19 18 20 22 21 20 22 24 20 19 20 19 20 21 20 21 22 17 16 19 19 24 23 26 31 29 27 21 22 20 16
8 8 8 9 11 12 12 12 14 14 16 18 13 13 19 21 20 20 21 24 25 22 22 20 20 22 18 12 15 10 13 21 22 22 23 26 27 29 29 24 20 19 18 16
10 8 8 8 8 8 10 11 12 13 15 14 12 12 17 15 18 21 22 23 20 19 21 22 20 19 18 22 23 13 18 24 21 19 21 25 24 26 26 21 18 17 16 14
6 7 7 7 8 8 8 8 10 10 12 13 7 7 11 15 19 20 17 15 16 19 19 19 21 19 18 20 15 13 17 20 21 22 23 24 27 26 23 18 16 15 14 13
2 3 4 6 7 6 6 7 10 10 12 9 9 12 10 12 15 17 16 16 17 17 18 17 16 19 18 11 7 14 14 15 16 20 24 25 26 25 22 17 15 14 14 15
3 4 5 5 5 5 6 7 8 10 12 14 12 15 8 8 9 11 9 7 8 5 5 8 17 27 19 20 18 19 14 14 17 20 23 24 24 21 18 16 15 15 16 17
3 5 6 6 6 6 4 4 4 6 5 7 12 19 13 8 5 2 6 4 3 2 3 6 6 16 10 10 8 10 11 14 15 18 18 19 19 17 15 13 12 12 13 12
7 6 7 7 5 4 5 5 6 5 4 3 6 19 13 11 8 7 6 4 4 5 4 4 6 11 4 4 6 8 11 13 13 12 13 14 13 12 10 8 6 6 5 5
11 9 8 5 6 8 6 5 3 2 3 2 4 12 19 16 15 8 5 7 6 3 6 7 14 18 9 6 6 9 11 10 9 8 9 11 9 7 6 8 8 7 6 5
14 12 10 7 6 7 11 4 1 3 4 2 5 9 15 19 15 8 7 7 5 5 7 15 15 10 2 6 7 10 9 8 6 6 5 8 8 8 9 10 9 8 8 8
18 13 10 15 16 15 3 11 11 11 8 7 5 7 8 14 9 8 7 5 7 7 8 10 7 2 5 7 10 10 7 5 5 3 2 3 7 9 10 10 9 9 9 8
25 22 19 20 21 20 18 12 12 13 13 18 10 9 6 9 6 8 9 6 7 4 5 5 4 4 6 9 9 6 5 5 3 1 0 2 3 4 5 5 5 4 3 2
31 33 32 32 27 23 20 20 19 13 15 13 9 9 9 6 8 11 13 21 12 10 10 6 6 7 9 9 6 4 5 5 3 2 1 1 2 3 3 4 4 3 2 2
Wind_Direction
206 208 210 207 207 208 209 211 215 213 218 227 235 239 246 230 237 250 240 224 216 223 230 248 208 219 238 257 292 278 300 290 303 351 99 287 299 28 19 349 297 291 287 278
219 212 210 207 205 207 210 214 219 223 225 234 239 241 232 225 237 252 240 226 230 234 234 224 217 236 253 272 276 275 305 301 328 102 125 173 292 296 300 294 304 292 295 278
215 202 210 208 207 205 203 209 227 228 232 236 242 226 227 227 234 237 221 222 233 236 212 224 222 243 266 265 271 277 288 269 239 224 262 287 295 294 307 305 289 296 287 299
214 206 215 213 211 211 211 215 229 236 230 233 231 220 220 238 238 234 229 230 233 229 212 227 245 239 258 279 281 275 284 271 253 256 279 284 300 307 298 295 292 287 301 313
207 209 211 213 213 213 216 216 219 225 233 232 209 208 206 229 233 221 227 220 226 192 201 219 216 218 233 260 276 296 310 288 285 301 359 288 274 302 321 314 307 298 303 298
198 201 210 218 210 215 219 220 223 232 213 213 199 196 199 199 224 234 222 201 195 206 217 224 229 243 258 265 265 256 267 277 288 269 267 310 276 315 337 319 298 305 307 304
164 158 168 187 189 200 212 222 222 199 195 205 207 211 201 205 227 231 225 221 203 231 233 241 248 252 260 262 264 263 264 261 252 281 320 21 169 330 299 306 319 302 296 299
188 194 191 191 203 202 205 211 199 195 196 200 189 179 204 205 215 229 233 231 239 243 245 252 263 266 270 269 257 259 253 240 246 259 304 296 112 282 307 307 322 297 297 308
187 188 196 194 205 203 196 200 205 207 203 193 190 198 208 211 220 234 242 231 234 235 237 243 234 219 238 178 304 294 291 257 239 231 280 243 196 285 293 302 297 288 316 326
186 190 190 191 195 201 200 203 203 205 211 216 216 212 224 228 229 237 243 234 233 233 238 233 225 217 211 214 199 206 218 231 247 251 245 273 266 299 305 318 307 324 323 320
195 193 198 194 191 199 202 208 207 207 208 213 219 225 221 224 230 236 238 237 232 225 222 222 212 213 211 227 198 198 217 224 234 238 237 262 266 285 309 312 314 313 318 323
201 200 204 207 207 203 197 208 211 212 209 217 220 225 231 236 239 243 245 242 238 214 207 210 215 215 217 225 219 217 235 235 256 228 219 255 281 294 297 301 309 314 323 333
197 204 212 211 213 212 210 212 207 206 213 216 223 222 224 223 227 237 239 244 241 236 233 231 227 225 238 224 234 217 221 219 241 256 265 261 271 283 294 308 313 320 329 338
194 198 202 207 212 214 212 217 219 218 221 220 223 226 225 224 228 234 236 243 252 250 245 238 239 240 252 244 248 254 259 259 264 267 264 269 280 290 309 319 316 326 332 339
190 199 205 209 211 214 214 214 215 216 208 218 223 223 227 225 232 232 234 241 246 244 238 238 241 251 252 259 261 266 275 267 258 269 283 292 299 309 321 319 320 328 339 336
177 175 186 203 213 212 211 216 216 218 219 223 222 223 222 225 228 229 232 239 246 246 248 247 251 251 257 254 256 266 283 268 260 268 277 289 298 313 318 315 316 325 333 332
181 185 187 200 206 207 213 216 214 214 218 216 225 236 230 223 227 233 232 240 245 246 249 249 248 255 252 256 264 288 266 268 266 270 285 294 309 311 312 305 307 319 324 328
183 194 198 199 207 208 200 201 205 206 208 208 220 225 220 222 225 226 229 234 238 240 246 248 257 253 256 264 274 266 249 262 266 271 293 307 311 315 313 304 298 307 312 320
198 218 226 223 220 229 215 210 212 212 210 201 216 211 219 218 221 222 230 234 245 254 252 259 259 253 247 268 267 272 272 255 262 278 302 309 311 314 310 303 294 294 300 305
239 232 235 238 248 240 247 244 238 236 232 227 219 191 221 211 216 215 214 225 228 255 259 256 252 264 280 275 267 263 251 251 273 285 303 309 309 311 312 303 295 294 298 298
282 283 266 250 250 264 254 233 212 209 212 220 203 194 203 203 244 261 191 193 216 218 260 253 268 282 287 289 276 238 235 268 282 297 308 310 308 312 316 307 300 302 303 305
263 276 280 284 280 256 231 207 211 219 197 187 205 197 186 203 190 200 196 198 226 225 231 246 250 281 301 277 241 233 263 277 292 304 317 324 323 323 328 343 352 358 11 39
242 249 265 267 246 237 231 209 207 219 214 145 208 193 188 196 198 207 199 215 215 209 225 241 258 286 281 251 246 276 282 283 292 299 327 348 351 359 27 39 38 43 50 53
243 240 229 224 226 234 238 161 58 246 256 272 224 206 194 201 199 211 220 204 204 226 232 250 275 284 207 195 278 295 290 283 271 289 337 20 33 48 56 56 53 56 63 82
235 229 220 223 234 238 158 184 219 246 253 240 233 226 197 194 199 205 212 202 225 229 243 272 251 152 182 263 297 294 278 251 244 280 4 43 57 61 64 66 71 72 81 98
235 228 225 237 244 244 232 216 230 246 250 214 201 206 200 199 203 202 204 214 225 243 267 254 244 196 269 290 291 276 244 222 209 245 16 67 57 49 44 47 50 52 60 105
241 242 244 245 243 240 234 227 225 243 239 227 230 213 220 213 219 216 221 227 227 248 265 251 228 271 288 290 277 241 220 191 192 184 123 94 72 54 38 38 37 42 56 90